Location: Ferma
(41.9500°N, 44.5167°E)
Time: 19:14:52
(UTC+00:00)

Cosmos 2228 - Pass Details

Date: 24 October 2021
Orbit: 587 x 619 km, 82.5° (Epoch: 02 December)

Event Time Altitude Azimuth Distance (km) Brightness Sun altitude
Rises 15:03:18 0° 150° (SSE) 2,872 6.2 -11.1°
Reaches altitude 10° 15:05:59 10° 133° (SE) 1,976 5.3 -11.6°
Maximum altitude 15:09:08 20° 87° (E) 1,451 4.3 -12.2°
Drops below altitude 10° 15:12:19 10° 41° (NE) 1,991 5.2 -12.8°
Sets 15:15:02 0° 24° (NNE) 2,903 6.2 -13.3°
